Voltar ao catálogo

STARLINK-35762

AtivoComunicaçõesVLEO
NORAD 67172·PAYLOAD·🇺🇸 United States

Lançado Dec 17, 2025 de Cape Canaveral Space Force Station

Loading…

Próximas Passagens (próximas 24 horas)

TLE

AtualizadoSource: CelesTrak SupGP

Época: Sep 15, 2026, 03:03 UTC

1 67172C 25303K   26258.12756944  .00045883  00000+0  16619-2 0  2587
2 67172  43.0004 321.1816 0001400 269.3941  91.1295 15.27555595    14

Acompanhe STARLINK-35762 em tempo real com AllMySat

Download on the App Store